This is the latest recevied weather packets stored in our database for station/object JS2WAD-13. If no packets are shown the sender has not sent any weather packets the latest 10 day(s).
| Time | Temp. | Humidity | Pressure | Rain* | Wind** | Luminosity | Snow |
|---|---|---|---|---|---|---|---|
| 1777697194 | 25° C | 35% | 901.5 hPa | 0 mm | - | 874 W/m² | - |
| 1777696894 | 24.44° C | 35% | 901.5 hPa | 0 mm | - | 877 W/m² | - |
| 1777696594 | 24.44° C | 36% | 901.6 hPa | 0 mm | - | 854 W/m² | - |
| 1777696294 | 24.44° C | 34% | 901.6 hPa | 0 mm | - | 858 W/m² | - |
| 1777695994 | 24.44° C | 36% | 901.6 hPa | 0 mm | - | 842 W/m² | - |
| 1777695694 | 24.44° C | 37% | 901.6 hPa | 0 mm | - | 359 W/m² | - |
| 1777695394 | 24.44° C | 36% | 901.5 hPa | 0 mm | - | 120 W/m² | - |
| 1777695094 | 24.44° C | 36% | 901.7 hPa | 0 mm | - | 118 W/m² | - |
| 1777694794 | 23.89° C | 37% | 901.6 hPa | 0 mm | - | 784 W/m² | - |
| 1777694494 | 23.89° C | 37% | 901.7 hPa | 0 mm | - | 886 W/m² | - |
| 1777694194 | 23.89° C | 44% | 901.6 hPa | 0 mm | - | 891 W/m² | - |
| 1777693894 | 23.89° C | 36% | 901.6 hPa | 0 mm | - | 902 W/m² | - |
| 1777693594 | 23.89° C | 37% | 901.7 hPa | 0 mm | - | 905 W/m² | - |
| 1777693294 | 23.89° C | 37% | 901.7 hPa | 0 mm | - | 904 W/m² | - |
| 1777692994 | 23.33° C | 41% | 901.7 hPa | 0 mm | - | 905 W/m² | - |
| 1777692694 | 23.33° C | 39% | 901.7 hPa | 0 mm | - | 911 W/m² | - |
| 1777692394 | 23.33° C | 38% | 901.7 hPa | 0 mm | - | 1016 W/m² | - |
| 1777692094 | 23.33° C | 39% | 901.5 hPa | 0 mm | - | 904 W/m² | - |
| 1777691794 | 22.78° C | 39% | 901.5 hPa | 0 mm | - | 904 W/m² | - |
| 1777691494 | 22.78° C | 39% | 901.5 hPa | 0 mm | - | 151 W/m² | - |
| 1777691194 | 22.78° C | 40% | 901.7 hPa | 0 mm | - | 109 W/m² | - |
| 1777690894 | 22.22° C | 40% | 901.7 hPa | 0 mm | - | 854 W/m² | - |
| 1777690594 | 22.22° C | 43% | 901.7 hPa | 0 mm | - | 909 W/m² | - |
| 1777690294 | 22.22° C | 43% | 901.8 hPa | 0 mm | - | 911 W/m² | - |
| 1777689994 | 22.22° C | 43% | 901.9 hPa | 0 mm | - | 849 W/m² | - |
* Rain latest hour (hover to see other rain measurements)
** Current wind speed in m/s (hover to see current wind gust speed)